Wind_Speed
48 45 48 49 45 42 41 41 41 41 41 40 41 41 42 41 38 34 33 32 31 30 29 28 28 28 27 27 27 28 29 29 29 30 29 30 30 31 32 31 31 32
54 50 48 50 50 48 48 49 50 50 48 46 45 44 45 45 41 36 34 35 33 32 31 30 30 31 31 31 32 32 32 32 32 33 33 34 35 35 35 35 34 32
60 58 54 52 51 52 53 54 54 53 51 49 47 46 47 46 43 39 38 37 35 33 33 32 32 33 33 34 35 35 35 35 35 36 36 37 37 37 37 37 37 36
60 62 61 57 53 53 54 55 55 54 54 52 51 49 48 47 46 44 40 38 37 35 35 35 34 34 34 35 36 37 37 38 38 38 38 39 38 38 38 38 38 37
55 57 58 58 56 55 55 56 57 56 55 54 53 51 50 49 49 46 42 40 39 38 38 38 38 37 37 38 38 39 40 40 41 41 41 41 40 40 39 39 39 39
54 54 55 56 56 56 57 58 58 58 57 56 54 52 50 49 47 44 43 42 41 41 41 42 42 42 42 42 41 41 42 42 43 43 43 43 43 43 43 43 43 43
57 57 56 56 55 54 54 54 55 56 56 55 53 51 49 47 45 44 45 45 46 46 47 47 47 47 47 46 45 44 44 45 45 45 45 45 45 46 46 47 47 46
60 60 59 58 56 54 53 54 54 54 53 52 50 48 47 46 46 47 49 50 51 52 52 51 51 51 51 50 49 48 48 48 48 48 48 48 48 48 48 48 48 48
58 59 60 60 60 59 59 60 59 57 55 52 50 49 49 50 51 52 54 54 55 56 56 56 55 54 54 53 53 52 51 52 51 50 50 49 49 49 49 48 48 49
58 58 60 62 64 64 65 65 63 60 56 54 53 53 54 56 57 57 58 59 59 60 60 59 59 58 57 57 56 55 55 54 53 52 51 51 50 50 49 49 49 49
62 61 61 63 65 66 66 66 64 62 59 57 56 57 59 62 63 62 62 62 62 63 64 64 63 62 60 59 58 58 57 56 55 53 53 52 51 50 49 49 48 49
68 66 65 64 65 65 66 65 64 63 62 60 61 63 66 67 67 67 66 66 67 68 68 67 67 65 63 61 60 59 59 57 56 56 54 53 52 51 50 49 48 48
69 70 70 69 69 69 68 68 69 68 68 68 69 71 70 69 69 68 68 69 70 70 70 69 68 66 64 63 62 61 60 60 59 57 55 54 52 51 50 50 49 49
70 71 71 71 72 73 73 74 74 74 73 73 72 70 68 67 67 68 70 71 71 70 69 67 65 64 63 64 63 63 62 61 59 56 53 52 51 50 49 49 50 50
71 71 69 68 69 70 71 73 73 73 73 71 70 68 66 65 66 68 70 69 67 64 60 59 60 62 63 63 61 60 59 57 55 52 50 48 47 46 46 47 48 49
71 71 70 69 68 68 69 70 71 71 70 68 67 65 62 63 64 64 62 59 56 56 56 57 58 57 56 56 55 54 53 52 50 48 45 44 43 41 42 44 45 47
70 71 71 71 71 71 71 71 71 71 70 69 68 65 63 61 55 50 51 52 52 53 54 49 44 42 45 47 48 48 49 49 48 44 41 41 41 40 40 43 46 49
68 70 71 72 73 73 73 73 72 71 70 70 69 67 65 60 51 49 54 57 57 58 53 43 38 41 46 47 48 49 49 49 48 42 37 36 36 36 39 43 47 50
68 69 70 71 72 74 74 75 74 74 72 71 69 67 65 61 60 62 66 68 68 68 64 57 55 58 59 58 58 57 55 52 49 45 43 41 38 38 42 47 51 52
69 70 70 71 72 73 74 74 74 74 74 73 71 70 68 68 70 73 75 76 77 75 73 71 70 71 71 70 69 68 65 61 56 54 54 52 48 48 51 54 56 58
71 72 73 73 74 75 75 75 75 75 76 76 76 75 75 76 77 79 80 81 81 81 80 78 77 77 77 77 77 76 73 70 65 63 64 64 62 62 62 63 65 67
74 74 75 76 77 78 78 78 78 78 79 79 80 80 80 81 81 82 83 84 83 83 83 81 80 80 79 80 82 80 77 74 71 67 66 66 67 68 69 71 72 73
78 78 79 79 80 81 81 81 81 82 82 82 83 83 83 83 83 83 83 83 82 81 80 79 78 76 75 77 80 79 76 74 72 70 68 68 69 70 71 71 72 72
78 79 80 81 82 82 82 82 82 82 82 81 81 81 80 80 79 79 78 78 77 76 76 75 73 72 71 72 75 76 75 72 71 71 71 71 72 73 73 73 74 75
73 74 75 76 78 78 78 78 78 77 76 76 76 75 75 75 74 74 74 73 72 73 72 71 70 69 69 70 71 73 73 72 72 71 70 70 71 71 73 74 75 76
71 72 73 74 75 75 74 74 74 73 73 72 73 73 73 73 72 72 72 72 72 72 71 70 69 69 69 69 70 71 71 71 72 71 69 69 68 68 69 70 71 72
Wind_Direction
266 264 260 262 265 269 272 272 273 276 278 279 279 281 284 286 285 285 285 285 285 283 281 281 281 280 279 278 279 281 281 279 275 271 269 268 268 268 268 267 266 265
262 264 261 260 263 266 269 270 272 276 277 279 281 282 285 287 286 285 285 285 284 281 281 282 283 283 282 282 283 284 284 283 279 275 273 272 272 271 269 267 266 265
256 260 262 263 264 266 268 270 272 274 276 278 280 282 284 285 285 285 286 285 283 282 284 285 285 285 285 284 285 286 286 285 282 280 278 278 278 276 273 270 267 265
252 255 260 264 266 268 270 271 273 274 276 278 279 280 281 283 283 284 284 282 282 283 285 286 285 286 285 285 285 285 285 285 283 282 281 281 281 280 277 275 273 269
250 252 256 261 265 269 271 272 273 274 276 277 278 279 280 281 282 281 280 279 280 282 284 284 284 285 285 285 285 284 284 283 282 282 282 281 280 279 277 276 274 272
247 250 255 259 263 267 270 271 272 272 274 275 276 278 278 279 278 277 277 277 277 280 284 285 284 284 285 285 285 285 284 283 282 282 282 281 280 279 277 276 274 273
247 251 255 259 261 264 267 269 270 271 273 274 275 275 275 276 274 272 273 274 275 280 285 286 286 285 285 286 287 287 287 286 285 284 283 283 282 281 279 277 275 273
251 253 255 258 260 261 263 264 266 268 270 272 272 272 272 272 270 269 271 274 276 279 283 286 287 285 284 286 287 288 288 287 285 285 284 284 283 282 280 278 275 273
254 255 256 257 258 259 260 261 263 266 268 268 267 267 269 270 269 269 272 274 276 278 282 284 286 286 285 285 286 286 286 286 285 285 285 284 284 282 280 278 276 274
253 255 256 256 257 259 260 262 265 266 267 266 265 265 268 269 270 271 273 275 277 279 282 283 285 287 286 285 286 286 286 286 285 285 285 285 284 282 280 278 276 274
252 254 255 256 258 260 262 264 266 267 266 265 264 266 269 270 271 272 274 275 277 280 282 283 285 286 286 286 286 286 286 285 285 285 286 286 285 283 281 279 276 274
253 255 257 258 259 260 263 265 267 267 265 264 265 269 272 272 272 273 274 275 277 280 282 284 285 286 286 285 285 285 285 284 285 286 286 286 286 285 283 281 278 276
254 256 258 259 260 261 263 264 266 266 266 266 269 272 273 273 274 275 275 276 278 280 282 284 285 285 285 285 285 285 284 284 285 285 286 286 286 286 284 282 279 277
256 257 258 259 259 261 262 264 265 266 267 269 270 272 273 274 276 277 277 277 279 280 282 283 283 284 285 286 286 285 285 285 285 285 286 287 287 286 285 283 280 278
258 259 259 259 259 260 261 263 264 265 267 269 270 272 274 274 276 278 279 280 280 280 279 280 282 285 286 286 285 285 285 285 286 287 289 289 288 287 285 283 280 277
259 259 260 260 260 260 261 262 264 265 267 268 270 271 272 274 279 281 280 279 276 275 277 281 285 286 284 282 281 281 282 283 284 287 289 288 287 286 282 278 275 273
260 260 261 261 262 262 262 263 264 265 266 267 268 269 271 276 278 275 272 271 271 275 281 285 284 278 275 275 277 277 278 279 281 285 288 287 285 283 277 272 270 269
260 261 261 262 263 264 264 264 265 266 266 267 268 269 272 273 265 257 259 265 268 273 277 274 265 263 266 269 271 273 275 276 277 278 278 277 276 273 270 269 268 268
260 260 260 261 261 262 263 264 264 265 266 267 267 267 267 265 259 257 260 264 267 270 270 267 263 265 268 269 270 271 272 274 274 271 268 265 262 260 260 260 262 265
259 259 259 259 259 260 260 261 262 263 263 264 264 264 263 261 261 262 264 266 268 269 269 268 267 267 268 269 270 270 270 270 270 269 268 265 259 257 257 256 258 262
259 259 259 259 260 260 261 261 261 262 263 263 264 264 264 264 264 265 267 268 269 270 271 271 270 270 270 271 270 269 269 268 267 266 267 265 262 259 258 258 259 262
259 259 260 260 261 261 262 263 263 264 265 266 267 267 267 268 268 269 270 271 272 272 273 273 273 273 273 273 272 271 269 268 267 265 265 265 264 263 262 262 263 265
260 260 261 261 262 262 263 264 264 265 266 267 268 268 269 269 270 271 271 272 273 273 273 273 273 273 273 273 273 272 271 269 268 266 264 263 264 266 266 267 267 268
261 261 262 262 263 263 264 265 265 266 267 267 268 269 269 269 270 270 270 271 271 272 272 272 272 272 271 271 272 273 273 272 270 268 266 264 264 264 265 266 267 268
263 263 264 264 264 264 265 266 266 267 267 268 269 269 269 269 269 269 270 270 270 270 271 271 271 272 271 270 271 272 272 273 272 271 269 268 267 266 266 266 267 268
267 267 267 267 267 267 267 267 268 268 268 269 269 269 269 268 268 268 269 269 269 269 270 270 270 270 270 270 270 270 270 271 271 271 271 271 270 270 269 269 270 270
Height
10607 10606 10605 10604 10605 10607 10607 10607 10607 10608 10608 10609 10610 10610 10610 10610 10611 10611 10611 10611 10611 10611 10611 10611 10611 10611 10611 10611 10612 10612 10612 10612 10612 10611 10611 10611 10612 10612 10612 10612 10612 10612
10601 10600 10599 10599 10601 10603 10602 10602 10602 10603 10604 10605 10605 10605 10605 10605 10606 10606 10606 10606 10606 10606 10606 10606 10606 10606 10606 10607 10607 10607 10607 10606 10606 10606 10606 10606 10606 10606 10606 10606 10606 10606
10597 10595 10595 10595 10597 10598 10596 10596 10597 10599 10599 10600 10600 10600 10600 10600 10600 10601 10601 10601 10601 10601 10602 10602 10602 10602 10602 10602 10601 10601 10601 10601 10601 10600 10600 10600 10600 10600 10600 10600 10600 10601
10594 10593 10591 10591 10592 10592 10591 10591 10592 10593 10594 10594 10594 10595 10595 10595 10595 10596 10596 10596 10596 10596 10597 10597 10597 10597 10597 10596 10596 10596 10596 10595 10595 10595 10594 10594 10594 10594 10594 10594 10594 10595
10589 10589 10587 10586 10587 10587 10586 10585 10586 10587 10588 10588 10589 10589 10590 10590 10590 10590 10591 10591 10591 10591 10591 10591 10591 10591 10591 10591 10591 10591 10590 10590 10590 10589 10589 10588 10588 10588 10588 10588 10588 10589
10584 10584 10582 10582 10582 10582 10581 10580 10580 10581 10582 10583 10583 10584 10585 10585 10585 10585 10585 10585 10585 10585 10585 10586 10586 10586 10586 10585 10585 10585 10584 10584 10584 10583 10583 10583 10582 10582 10582 10582 10582 10582
10578 10578 10578 10577 10577 10577 10576 10575 10574 10575 10575 10576 10577 10579 10579 10579 10579 10579 10579 10579 10579 10579 10579 10580 10580 10580 10579 10579 10579 10578 10578 10577 10577 10577 10576 10576 10576 10576 10575 10575 10575 10575
10573 10573 10572 10572 10571 10571 10570 10569 10569 10569 10570 10570 10571 10572 10573 10574 10574 10574 10574 10574 10573 10574 10574 10575 10575 10574 10574 10573 10573 10572 10572 10571 10570 10570 10570 10570 10569 10569 10569 10568 10568 10568
10567 10567 10566 10566 10565 10564 10563 10562 10563 10564 10564 10565 10566 10567 10568 10568 10569 10568 10568 10568 10568 10568 10568 10569 10569 10568 10568 10568 10567 10567 10566 10565 10564 10564 10564 10563 10563 10562 10562 10561 10561 10560
10561 10561 10560 10559 10558 10557 10556 10556 10558 10559 10560 10560 10560 10561 10562 10562 10563 10563 10562 10562 10561 10561 10562 10562 10562 10562 10561 10561 10561 10560 10559 10558 10558 10558 10557 10557 10556 10555 10555 10554 10554 10554
10554 10554 10553 10553 10552 10552 10551 10551 10552 10553 10554 10554 10554 10555 10556 10556 10557 10557 10556 10555 10554 10554 10554 10554 10554 10554 10554 10553 10553 10552 10551 10551 10551 10551 10551 10550 10550 10549 10548 10547 10547 10547
10548 10548 10548 10548 10547 10546 10546 10546 10546 10547 10548 10548 10549 10549 10549 10549 10550 10550 10550 10548 10547 10547 10546 10546 10546 10546 10546 10545 10545 10544 10543 10543 10543 10544 10543 10543 10543 10542 10542 10541 10541 10540
10541 10542 10543 10543 10542 10541 10541 10541 10540 10540 10540 10542 10543 10543 10542 10542 10542 10542 10542 10541 10541 10540 10539 10539 10537 10536 10537 10536 10536 10535 10535 10535 10536 10537 10537 10537 10536 10536 10535 10534 10534 10533
10534 10535 10536 10537 10536 10536 10535 10534 10533 10533 10533 10535 10535 10536 10536 10536 10535 10534 10534 10533 10533 10533 10533 10531 10529 10528 10528 10526 10526 10526 10526 10526 10528 10529 10531 10531 10531 10530 10529 10528 10526 10526
10527 10528 10529 10529 10529 10530 10528 10526 10525 10526 10527 10527 10528 10529 10530 10529 10528 10527 10525 10525 10525 10526 10526 10525 10523 10522 10520 10518 10517 10517 10517 10518 10519 10522 10524 10525 10525 10526 10523 10521 10519 10518
10518 10519 10520 10520 10521 10522 10521 10518 10517 10518 10519 10520 10521 10523 10523 10523 10522 10518 10515 10516 10516 10516 10519 10520 10519 10516 10512 10509 10510 10510 10510 10511 10512 10515 10517 10518 10520 10521 10519 10515 10512 10510
10510 10510 10510 10511 10511 10511 10511 10511 10510 10511 10512 10513 10514 10515 10517 10519 10516 10510 10506 10507 10508 10509 10514 10517 10515 10508 10503 10501 10502 10504 10504 10505 10507 10511 10513 10513 10513 10514 10512 10509 10507 10505
10502 10501 10501 10501 10501 10501 10501 10502 10503 10504 10505 10506 10507 10508 10511 10512 10509 10502 10499 10500 10501 10504 10510 10513 10508 10500 10496 10496 10497 10497 10499 10501 10503 10506 10507 10507 10507 10507 10504 10501 10500 10499
10494 10493 10492 10492 10492 10491 10492 10493 10494 10495 10497 10499 10500 10501 10504 10504 10500 10496 10494 10493 10494 10497 10502 10504 10501 10494 10491 10491 10491 10492 10493 10495 10498 10499 10500 10500 10500 10498 10496 10494 10492 10491
10484 10483 10483 10483 10482 10482 10482 10484 10485 10486 10488 10489 10491 10492 10494 10494 10492 10489 10486 10485 10486 10487 10489 10493 10492 10488 10485 10484 10483 10483 10485 10488 10491 10491 10490 10492 10492 10489 10487 10486 10483 10483
10474 10473 10473 10473 10473 10472 10473 10474 10475 10477 10477 10478 10479 10480 10482 10482 10481 10479 10477 10476 10476 10476 10477 10480 10480 10477 10476 10475 10472 10472 10474 10477 10481 10482 10479 10480 10481 10480 10478 10477 10475 10474
10463 10463 10463 10463 10463 10463 10463 10464 10466 10467 10467 10467 10468 10468 10469 10470 10470 10469 10467 10466 10465 10465 10465 10467 10467 10466 10466 10462 10457 10458 10462 10465 10468 10471 10470 10468 10469 10469 10468 10467 10466 10465
10452 10453 10453 10452 10452 10452 10452 10454 10455 10455 10456 10457 10457 10456 10457 10458 10458 10458 10457 10455 10455 10454 10454 10454 10455 10455 10455 10450 10444 10444 10448 10452 10455 10458 10459 10459 10458 10457 10457 10456 10455 10455
10442 10442 10442 10442 10441 10440 10441 10442 10443 10444 10445 10446 10446 10445 10445 10446 10446 10446 10446 10445 10445 10444 10443 10443 10444 10444 10445 10441 10436 10434 10436 10439 10442 10444 10446 10447 10447 10448 10447 10446 10445 10445
10431 10431 10431 10430 10429 10429 10430 10431 10431 10432 10434 10434 10434 10434 10434 10434 10435 10435 10434 10434 10434 10433 10432 10433 10434 10433 10433 10432 10430 10428 10427 10428 10429 10431 10433 10435 10436 10437 10437 10436 10436 10436
10421 10421 10420 10419 10418 10418 10420 10420 10420 10421 10423 10423 10423 10422 10422 10423 10425 10425 10424 10423 10423 10422 10423 10424 10424 10423 10422 10422 10421 10420 10420 10419 10419 10419 10422 10423 10424 10426 10426 10426 10426 10425